Time,TemperatureF,DewpointF,PressureIn,WindDirection,WindDirectionDegrees,WindSpeedMPH,WindSpeedGustMPH,Humidity,HourlyPrecipIn,Conditions,Clouds,dailyrainin,SoftwareType,DateUTC
2013-08-13 00:01:00,78.4,68.7,30.00,North,0,0.0,0.0,72,0.00,,SCT120,0.00,VWS V14.01,2013-08-13 04:01:00,
2013-08-13 00:06:00,78.3,68.5,30.00,North,0,0.0,0.0,72,0.00,,SCT120,0.00,VWS V14.01,2013-08-13 04:06:00,
2013-08-13 00:11:00,78.3,68.5,30.00,North,0,0.0,0.0,72,0.00,,SCT120,0.00,VWS V14.01,2013-08-13 04:11:00,
2013-08-13 00:16:00,78.1,68.3,30.00,North,0,0.0,0.0,72,0.00,,SCT120,0.00,VWS V14.01,2013-08-13 04:16:00,
2013-08-13 00:21:00,78.1,68.3,30.00,North,0,0.0,0.0,72,0.00,,SCT120,0.00,VWS V14.01,2013-08-13 04:21:00,
2013-08-13 00:26:00,77.9,68.2,30.00,North,0,0.0,0.0,72,0.00,,SCT120,0.00,VWS V14.01,2013-08-13 04:26:00,
2013-08-13 00:31:00,78.1,68.7,30.00,North,0,0.0,0.0,73,0.00,,SCT120,0.00,VWS V14.01,2013-08-13 04:31:00,
2013-08-13 00:36:00,77.9,68.6,30.00,North,0,0.0,0.0,73,0.00,,SCT120,0.00,VWS V14.01,2013-08-13 04:36:00,
2013-08-13 00:41:00,77.9,68.6,30.00,North,0,0.0,0.0,73,0.00,,SCT120,0.00,VWS V14.01,2013-08-13 04:41:00,
2013-08-13 00:46:00,77.9,68.6,30.00,North,0,0.0,0.0,73,0.00,,SCT120,0.00,VWS V14.01,2013-08-13 04:46:00,
2013-08-13 00:51:00,77.9,68.6,30.00,North,0,0.0,0.0,73,0.00,,SCT120,0.00,VWS V14.01,2013-08-13 04:51:00,
2013-08-13 00:56:00,77.7,68.4,30.00,North,0,0.0,0.0,73,0.00,,SCT120,0.00,VWS V14.01,2013-08-13 04:56:00,
2013-08-13 01:01:00,77.7,68.8,30.00,North,0,0.0,0.0,74,0.00,,SCT120,0.00,VWS V14.01,2013-08-13 05:01:00,
2013-08-13 01:06:00,77.5,68.6,30.00,North,0,0.0,0.0,74,0.00,,SCT120,0.00,VWS V14.01,2013-08-13 05:06:00,
2013-08-13 01:11:00,77.5,68.6,30.00,North,0,0.0,0.0,74,0.00,,SCT120,0.00,VWS V14.01,2013-08-13 05:11:00,
2013-08-13 01:16:00,77.4,68.4,30.00,North,0,0.0,0.0,74,0.00,,SCT120,0.00,VWS V14.01,2013-08-13 05:16:00,
2013-08-13 01:21:00,77.4,68.8,30.00,North,0,0.0,0.0,75,0.00,,SCT120,0.00,VWS V14.01,2013-08-13 05:21:00,
2013-08-13 01:26:00,77.4,68.8,29.97,North,0,0.0,0.0,75,0.00,,SCT120,0.00,VWS V14.01,2013-08-13 05:26:00,
2013-08-13 01:31:00,77.5,69.4,29.97,North,0,0.0,0.0,76,0.00,,SCT120,0.00,VWS V14.01,2013-08-13 05:31:00,
2013-08-13 01:36:00,77.4,69.2,29.97,North,0,0.0,0.0,76,0.00,,SCT120,0.00,VWS V14.01,2013-08-13 05:36:00,
2013-08-13 01:41:00,77.4,69.2,29.97,North,0,0.0,0.0,76,0.00,,SCT120,0.00,VWS V14.01,2013-08-13 05:41:00,
2013-08-13 01:46:00,77.2,69.0,29.97,North,0,0.0,0.0,76,0.00,,SCT120,0.00,VWS V14.01,2013-08-13 05:46:00,
2013-08-13 01:51:00,77.0,68.9,29.97,North,0,0.0,0.0,76,0.00,,SCT120,0.00,VWS V14.01,2013-08-13 05:51:00,
2013-08-13 01:56:00,77.0,69.2,29.97,North,0,0.0,0.0,77,0.00,,SCT120,0.00,VWS V14.01,2013-08-13 05:56:00,
2013-08-13 02:01:00,77.0,69.2,29.97,North,0,0.0,0.0,77,0.00,,SCT120,0.00,VWS V14.01,2013-08-13 06:01:00,
2013-08-13 02:06:00,77.2,69.8,29.97,North,0,0.0,0.0,78,0.00,,SCT120,0.00,VWS V14.01,2013-08-13 06:06:00,
2013-08-13 02:11:00,77.0,69.6,29.97,North,0,0.0,0.0,78,0.00,,SCT120,0.00,VWS V14.01,2013-08-13 06:11:00,
2013-08-13 02:16:00,77.0,69.6,29.97,North,0,0.0,0.0,78,0.00,,SCT120,0.00,VWS V14.01,2013-08-13 06:16:00,
2013-08-13 02:21:00,77.0,70.0,29.97,North,0,0.0,0.0,79,0.00,,SCT120,0.00,VWS V14.01,2013-08-13 06:21:00,
2013-08-13 02:26:00,77.0,70.0,29.97,North,0,0.0,0.0,79,0.00,,SCT120,0.00,VWS V14.01,2013-08-13 06:26:00,
2013-08-13 02:31:00,77.0,70.0,29.97,North,0,0.0,0.0,79,0.00,,SCT120,0.00,VWS V14.01,2013-08-13 06:31:00,
2013-08-13 02:36:00,77.2,70.2,29.97,North,0,0.0,0.0,79,0.00,,SCT120,0.00,VWS V14.01,2013-08-13 06:36:00,
2013-08-13 02:41:00,77.2,70.2,29.97,North,0,0.0,0.0,79,0.00,,SCT120,0.00,VWS V14.01,2013-08-13 06:41:00,
2013-08-13 02:46:00,77.0,70.0,29.97,North,0,0.0,0.0,79,0.00,,SCT120,0.00,VWS V14.01,2013-08-13 06:46:00,
2013-08-13 02:51:00,76.8,69.8,29.97,North,0,0.0,0.0,79,0.00,,SCT120,0.00,VWS V14.01,2013-08-13 06:51:00,
2013-08-13 02:56:00,76.6,69.3,29.97,North,0,0.0,0.0,78,0.00,,SCT120,0.00,VWS V14.01,2013-08-13 06:56:00,
2013-08-13 03:01:00,76.6,69.3,29.97,North,0,0.0,0.0,78,0.00,,SCT120,0.00,VWS V14.01,2013-08-13 07:01:00,
2013-08-13 03:06:00,76.5,69.5,29.97,North,0,0.0,0.0,79,0.00,,SCT120,0.00,VWS V14.01,2013-08-13 07:06:00,
2013-08-13 03:11:00,76.5,69.5,29.97,North,0,0.0,0.0,79,0.00,,SCT120,0.00,VWS V14.01,2013-08-13 07:11:00,
2013-08-13 03:16:00,76.5,69.5,29.97,North,0,0.0,0.0,79,0.00,,SCT120,0.00,VWS V14.01,2013-08-13 07:16:00,
2013-08-13 03:21:00,76.5,69.5,29.97,North,0,0.0,0.0,79,0.00,,SCT120,0.00,VWS V14.01,2013-08-13 07:21:00,
2013-08-13 03:26:00,76.3,69.3,29.97,North,0,0.0,0.0,79,0.00,,SCT120,0.00,VWS V14.01,2013-08-13 07:26:00,
2013-08-13 03:31:00,76.5,69.5,29.97,North,0,0.0,0.0,79,0.00,,SCT120,0.00,VWS V14.01,2013-08-13 07:31:00,
2013-08-13 03:36:00,76.5,69.5,29.97,North,0,0.0,0.0,79,0.00,,SCT120,0.00,VWS V14.01,2013-08-13 07:36:00,
2013-08-13 03:41:00,76.3,69.3,29.97,North,0,0.0,0.0,79,0.00,,SCT120,0.00,VWS V14.01,2013-08-13 07:41:00,
2013-08-13 03:46:00,76.1,69.1,29.97,North,0,0.0,0.0,79,0.00,,SCT120,0.00,VWS V14.01,2013-08-13 07:46:00,
2013-08-13 03:51:00,76.3,69.3,29.97,North,0,0.0,0.0,79,0.00,,SCT120,0.00,VWS V14.01,2013-08-13 07:51:00,
2013-08-13 03:56:00,76.1,69.1,29.97,North,0,0.0,0.0,79,0.00,,SCT120,0.00,VWS V14.01,2013-08-13 07:56:00,
2013-08-13 04:01:00,76.1,69.1,29.97,North,0,0.0,0.0,79,0.00,,SCT120,0.00,VWS V14.01,2013-08-13 08:01:00,
2013-08-13 04:06:00,75.9,69.3,29.97,North,0,0.0,0.0,80,0.00,,SCT120,0.00,VWS V14.01,2013-08-13 08:06:00,
2013-08-13 04:11:00,75.9,69.3,29.97,North,0,0.0,0.0,80,0.00,,SCT120,0.00,VWS V14.01,2013-08-13 08:11:00,
2013-08-13 04:16:00,75.9,69.3,29.97,North,0,0.0,0.0,80,0.00,,SCT120,0.00,VWS V14.01,2013-08-13 08:16:00,
2013-08-13 04:21:00,75.9,69.3,29.97,North,0,0.0,0.0,80,0.00,,SCT120,0.00,VWS V14.01,2013-08-13 08:21:00,
2013-08-13 04:26:00,75.9,69.3,29.97,North,0,0.0,0.0,80,0.00,,SCT120,0.00,VWS V14.01,2013-08-13 08:26:00,
2013-08-13 04:31:00,75.9,69.3,29.97,North,0,0.0,0.0,80,0.00,,SCT120,0.00,VWS V14.01,2013-08-13 08:31:00,
2013-08-13 04:36:00,75.7,69.1,29.97,North,0,0.0,0.0,80,0.00,,SCT120,0.00,VWS V14.01,2013-08-13 08:36:00,
2013-08-13 04:41:00,75.7,69.1,29.97,North,0,0.0,0.0,80,0.00,,SCT120,0.00,VWS V14.01,2013-08-13 08:41:00,
2013-08-13 04:46:00,75.7,69.1,29.97,North,0,0.0,0.0,80,0.00,,SCT120,0.00,VWS V14.01,2013-08-13 08:46:00,
2013-08-13 04:51:00,75.6,69.0,29.97,North,0,0.0,0.0,80,0.00,,SCT120,0.00,VWS V14.01,2013-08-13 08:51:00,
2013-08-13 04:56:00,75.6,69.0,29.97,North,0,0.0,0.0,80,0.00,,SCT120,0.00,VWS V14.01,2013-08-13 08:56:00,
2013-08-13 05:01:00,75.4,68.8,29.97,North,0,0.0,0.0,80,0.00,,SCT120,0.00,VWS V14.01,2013-08-13 09:01:00,
2013-08-13 05:07:00,75.4,68.8,29.97,North,0,0.0,0.0,80,0.00,,SCT120,0.00,VWS V14.01,2013-08-13 09:07:00,
2013-08-13 05:12:00,75.4,69.2,29.97,North,0,0.0,0.0,81,0.00,,SCT120,0.00,VWS V14.01,2013-08-13 09:12:00,
2013-08-13 05:17:00,75.6,69.3,29.97,North,0,0.0,0.0,81,0.00,,SCT120,0.00,VWS V14.01,2013-08-13 09:17:00,
2013-08-13 05:22:00,75.6,69.3,29.97,North,0,0.0,0.0,81,0.00,,SCT120,0.00,VWS V14.01,2013-08-13 09:22:00,
2013-08-13 05:27:00,75.6,69.3,29.97,North,0,0.0,0.0,81,0.00,,SCT120,0.00,VWS V14.01,2013-08-13 09:27:00,
2013-08-13 05:32:00,75.6,69.3,29.97,North,0,0.0,0.0,81,0.00,,SCT120,0.00,VWS V14.01,2013-08-13 09:32:00,
2013-08-13 05:37:00,75.4,68.8,29.97,North,0,0.0,0.0,80,0.00,,SCT120,0.00,VWS V14.01,2013-08-13 09:37:00,
2013-08-13 05:42:00,75.4,68.8,29.97,North,0,0.0,0.0,80,0.00,,SCT120,0.00,VWS V14.01,2013-08-13 09:42:00,
2013-08-13 05:47:00,75.4,68.8,29.97,North,0,0.0,0.0,80,0.00,,SCT120,0.00,VWS V14.01,2013-08-13 09:47:00,
2013-08-13 05:52:00,75.4,68.8,29.97,North,0,0.0,0.0,80,0.00,,SCT120,0.00,VWS V14.01,2013-08-13 09:52:00,
2013-08-13 05:57:00,75.4,68.8,29.94,North,0,0.0,0.0,80,0.00,,SCT120,0.00,VWS V14.01,2013-08-13 09:57:00,
2013-08-13 06:02:00,75.4,69.2,29.94,North,0,0.0,0.0,81,0.00,,SCT120,0.00,VWS V14.01,2013-08-13 10:02:00,
2013-08-13 06:07:00,75.4,69.2,29.94,North,0,0.0,0.0,81,0.00,,SCT120,0.00,VWS V14.01,2013-08-13 10:07:00,
2013-08-13 06:12:00,75.4,69.2,29.97,North,0,0.0,0.0,81,0.00,,SCT120,0.00,VWS V14.01,2013-08-13 10:12:00,
2013-08-13 06:17:00,75.4,69.2,29.97,North,0,0.0,0.0,81,0.00,,SCT120,0.00,VWS V14.01,2013-08-13 10:17:00,
2013-08-13 06:22:00,75.6,69.3,29.97,North,0,0.0,0.0,81,0.00,,SCT120,0.00,VWS V14.01,2013-08-13 10:22:00,
2013-08-13 06:27:00,75.6,69.3,29.94,North,0,0.0,0.0,81,0.00,,SCT120,0.00,VWS V14.01,2013-08-13 10:27:00,
2013-08-13 06:32:00,75.6,69.3,29.94,North,0,0.0,0.0,81,0.00,,SCT120,0.00,VWS V14.01,2013-08-13 10:32:00,
2013-08-13 06:37:00,75.6,69.3,29.94,North,0,0.0,0.0,81,0.00,,SCT120,0.00,VWS V14.01,2013-08-13 10:37:00,
2013-08-13 06:42:00,75.7,69.5,29.97,North,0,0.0,0.0,81,0.00,,SCT120,0.00,VWS V14.01,2013-08-13 10:42:00,
2013-08-13 06:47:00,75.9,69.7,29.97,North,0,0.0,0.0,81,0.00,,SCT120,0.00,VWS V14.01,2013-08-13 10:47:00,
2013-08-13 06:52:00,75.9,69.7,29.97,North,0,0.0,0.0,81,0.00,,SCT120,0.00,VWS V14.01,2013-08-13 10:52:00,
2013-08-13 06:57:00,76.1,69.8,29.97,North,0,0.0,0.0,81,0.00,,SCT120,0.00,VWS V14.01,2013-08-13 10:57:00,
2013-08-13 07:02:00,76.3,70.0,29.97,North,0,0.0,0.0,81,0.00,,SCT120,0.00,VWS V14.01,2013-08-13 11:02:00,
2013-08-13 07:07:00,76.6,70.4,29.97,North,0,0.0,0.0,81,0.00,,SCT120,0.00,VWS V14.01,2013-08-13 11:07:00,
2013-08-13 07:12:00,77.0,70.4,30.00,North,0,0.0,0.0,80,0.00,,SCT120,0.00,VWS V14.01,2013-08-13 11:12:00,
2013-08-13 07:17:00,77.5,70.9,30.00,North,0,0.0,0.0,80,0.00,,SCT120,0.00,VWS V14.01,2013-08-13 11:17:00,
2013-08-13 07:22:00,78.1,71.4,30.00,North,0,0.0,0.0,80,0.00,,SCT120,0.00,VWS V14.01,2013-08-13 11:22:00,
2013-08-13 07:27:00,78.6,71.6,30.00,North,0,0.0,0.0,79,0.00,,SCT120,0.00,VWS V14.01,2013-08-13 11:27:00,
2013-08-13 07:32:00,79.0,71.9,30.00,North,0,0.0,0.0,79,0.00,,SCT120,0.00,VWS V14.01,2013-08-13 11:32:00,
2013-08-13 07:37:00,79.3,71.9,30.00,North,0,0.0,0.0,78,0.00,,SCT120,0.00,VWS V14.01,2013-08-13 11:37:00,
2013-08-13 07:42:00,79.9,72.4,30.00,North,0,0.0,0.0,78,0.00,,SCT120,0.00,VWS V14.01,2013-08-13 11:42:00,
2013-08-13 07:47:00,80.1,72.2,30.00,North,0,0.0,0.0,77,0.00,,SCT120,0.00,VWS V14.01,2013-08-13 11:47:00,
2013-08-13 07:52:00,80.2,70.4,30.00,North,0,0.0,0.0,72,0.00,,SCT120,0.00,VWS V14.01,2013-08-13 11:52:00,
2013-08-13 07:57:00,81.0,70.7,30.00,North,0,0.0,0.0,71,0.00,,SCT120,0.00,VWS V14.01,2013-08-13 11:57:00,
2013-08-13 08:02:00,81.5,70.4,30.00,North,0,0.0,0.0,69,0.00,,SCT120,0.00,VWS V14.01,2013-08-13 12:02:00,
2013-08-13 08:07:00,81.9,69.4,30.00,North,0,0.0,0.0,66,0.00,,SCT120,0.00,VWS V14.01,2013-08-13 12:07:00,
2013-08-13 08:12:00,82.2,67.9,30.00,North,0,0.0,0.0,62,0.00,,SCT120,0.00,VWS V14.01,2013-08-13 12:12:00,
2013-08-13 08:17:00,82.6,66.3,30.00,North,0,0.0,0.0,58,0.00,,SCT120,0.00,VWS V14.01,2013-08-13 12:17:00,
2013-08-13 08:22:00,83.1,66.3,30.00,North,0,0.0,0.0,57,0.00,,SCT120,0.00,VWS V14.01,2013-08-13 12:22:00,
2013-08-13 08:27:00,83.3,66.0,30.00,North,0,0.0,0.0,56,0.00,,SCT120,0.00,VWS V14.01,2013-08-13 12:27:00,
2013-08-13 08:32:00,84.0,65.6,30.00,North,0,0.0,0.0,54,0.00,,SCT120,0.00,VWS V14.01,2013-08-13 12:32:00,
2013-08-13 08:37:00,84.4,63.7,30.00,North,0,0.0,0.0,50,0.00,,SCT120,0.00,VWS V14.01,2013-08-13 12:37:00,
2013-08-13 08:42:00,84.7,64.1,30.00,North,0,0.0,0.0,50,0.00,,SCT120,0.00,VWS V14.01,2013-08-13 12:42:00,
2013-08-13 08:47:00,84.9,62.5,30.00,North,0,0.0,0.0,47,0.00,,SCT120,0.00,VWS V14.01,2013-08-13 12:47:00,
2013-08-13 08:52:00,85.3,62.2,30.00,North,0,0.0,0.0,46,0.00,,SCT120,0.00,VWS V14.01,2013-08-13 12:52:00,
2013-08-13 08:57:00,85.5,62.3,30.00,North,0,0.0,0.0,46,0.00,,SCT120,0.00,VWS V14.01,2013-08-13 12:57:00,
2013-08-13 09:02:00,85.5,61.1,30.00,North,0,0.0,0.0,44,0.00,,SCT120,0.00,VWS V14.01,2013-08-13 13:02:00,
2013-08-13 09:07:00,86.2,62.4,30.00,North,0,0.0,0.0,45,0.00,,SCT120,0.00,VWS V14.01,2013-08-13 13:07:00,
2013-08-13 09:12:00,86.7,60.9,30.00,North,0,0.0,0.0,42,0.00,,SCT120,0.00,VWS V14.01,2013-08-13 13:12:00,
2013-08-13 09:17:00,86.9,59.7,30.00,North,0,0.0,0.0,40,0.00,,SCT120,0.00,VWS V14.01,2013-08-13 13:17:00,
2013-08-13 09:22:00,87.3,58.6,30.00,North,0,0.0,0.0,38,0.00,,SCT120,0.00,VWS V14.01,2013-08-13 13:22:00,
2013-08-13 09:27:00,87.6,57.4,30.00,North,0,0.0,0.0,36,0.00,,SCT120,0.00,VWS V14.01,2013-08-13 13:27:00,
2013-08-13 09:32:00,87.8,55.2,30.00,North,0,0.0,0.0,33,0.00,,SCT120,0.00,VWS V14.01,2013-08-13 13:32:00,
2013-08-13 09:37:00,88.2,54.6,30.00,North,0,0.0,0.0,32,0.00,,SCT120,0.00,VWS V14.01,2013-08-13 13:37:00,
2013-08-13 09:42:00,88.3,53.0,30.00,North,0,0.0,0.0,30,0.00,,SCT120,0.00,VWS V14.01,2013-08-13 13:42:00,
2013-08-13 09:47:00,88.5,53.2,30.00,North,0,0.0,0.0,30,0.00,,SCT120,0.00,VWS V14.01,2013-08-13 13:47:00,
2013-08-13 09:52:00,89.1,53.6,30.00,North,0,0.0,0.0,30,0.00,,SCT120,0.00,VWS V14.01,2013-08-13 13:52:00,
2013-08-13 09:57:00,89.6,53.2,30.00,North,0,0.0,0.0,29,0.00,,SCT120,0.00,VWS V14.01,2013-08-13 13:57:00,
2013-08-13 10:02:00,90.3,53.8,30.00,North,0,0.0,0.0,29,0.00,,SCT120,0.00,VWS V14.01,2013-08-13 14:02:00,
2013-08-13 10:07:00,90.7,50.1,30.00,North,0,0.0,0.0,25,0.00,,SCT120,0.00,VWS V14.01,2013-08-13 14:07:00,
2013-08-13 10:12:00,91.0,51.4,30.00,North,0,0.0,0.0,26,0.00,,SCT120,0.00,VWS V14.01,2013-08-13 14:12:00,
2013-08-13 10:17:00,91.0,49.3,30.00,North,0,0.0,0.0,24,0.00,,SCT120,0.00,VWS V14.01,2013-08-13 14:17:00,
2013-08-13 10:22:00,91.4,50.7,30.00,North,0,0.0,0.0,25,0.00,,SCT120,0.00,VWS V14.01,2013-08-13 14:22:00,
2013-08-13 10:27:00,91.0,48.1,30.00,North,0,0.0,0.0,23,0.00,,SCT120,0.00,VWS V14.01,2013-08-13 14:27:00,
2013-08-13 10:32:00,91.4,47.2,30.00,North,0,0.0,0.0,22,0.00,,SCT120,0.00,VWS V14.01,2013-08-13 14:32:00,
2013-08-13 10:37:00,91.4,47.2,30.00,North,0,0.0,0.0,22,0.00,,SCT120,0.00,VWS V14.01,2013-08-13 14:37:00,
2013-08-13 10:42:00,91.0,45.7,30.00,North,0,0.0,0.0,21,0.00,,SCT120,0.00,VWS V14.01,2013-08-13 14:42:00,
2013-08-13 10:47:00,90.7,46.7,30.00,North,0,0.0,0.0,22,0.00,,SCT120,0.00,VWS V14.01,2013-08-13 14:47:00,
2013-08-13 10:52:00,91.8,47.5,30.00,North,0,0.0,0.0,22,0.00,,SCT120,0.00,VWS V14.01,2013-08-13 14:52:00,
2013-08-13 10:57:00,92.1,49.0,30.00,North,0,0.0,0.0,23,0.00,,SCT120,0.00,VWS V14.01,2013-08-13 14:57:00,
2013-08-13 11:02:00,91.9,47.7,30.00,North,0,0.0,0.0,22,0.00,,SCT120,0.00,VWS V14.01,2013-08-13 15:02:00,
2013-08-13 11:07:00,91.8,46.3,30.00,North,0,0.0,0.0,21,0.00,,SCT120,0.00,VWS V14.01,2013-08-13 15:07:00,
2013-08-13 11:12:00,92.7,44.4,30.00,North,0,0.0,0.0,19,0.00,,SCT120,0.00,VWS V14.01,2013-08-13 15:12:00,
2013-08-13 11:17:00,92.8,44.6,30.00,North,0,0.0,0.0,19,0.00,,SCT120,0.00,VWS V14.01,2013-08-13 15:17:00,
2013-08-13 11:22:00,92.7,47.1,30.00,North,0,0.0,0.0,21,0.00,,SCT120,0.00,VWS V14.01,2013-08-13 15:22:00,
2013-08-13 11:27:00,92.1,47.8,30.00,North,0,0.0,0.0,22,0.00,,SCT120,0.00,VWS V14.01,2013-08-13 15:27:00,
2013-08-13 11:32:00,92.3,48.0,30.00,North,0,0.0,0.0,22,0.00,,SCT120,0.00,VWS V14.01,2013-08-13 15:32:00,
2013-08-13 11:37:00,93.2,42.0,30.00,North,0,0.0,0.0,17,0.00,,SCT120,0.00,VWS V14.01,2013-08-13 15:37:00,
2013-08-13 11:42:00,92.8,43.2,30.00,North,0,0.0,0.0,18,0.00,,SCT120,0.00,VWS V14.01,2013-08-13 15:42:00,
2013-08-13 11:47:00,93.0,44.7,30.00,North,0,0.0,0.0,19,0.00,,SCT120,0.00,VWS V14.01,2013-08-13 15:47:00,
2013-08-13 11:52:00,92.7,41.5,30.00,North,0,0.0,0.0,17,0.00,,SCT120,0.00,VWS V14.01,2013-08-13 15:52:00,
2013-08-13 11:57:00,93.2,43.4,30.00,North,0,0.0,0.0,18,0.00,,SCT120,0.00,VWS V14.01,2013-08-13 15:57:00,
2013-08-13 12:02:00,93.7,42.4,30.00,North,0,0.0,0.0,17,0.00,,SCT120,0.00,VWS V14.01,2013-08-13 16:02:00,
2013-08-13 12:07:00,93.6,42.2,30.00,North,0,0.0,0.0,17,0.00,,SCT120,0.00,VWS V14.01,2013-08-13 16:07:00,
2013-08-13 12:12:00,93.2,43.4,29.97,North,0,0.0,0.0,18,0.00,,SCT120,0.00,VWS V14.01,2013-08-13 16:12:00,
2013-08-13 12:17:00,93.6,42.2,29.97,North,0,0.0,0.0,17,0.00,,SCT120,0.00,VWS V14.01,2013-08-13 16:17:00,
2013-08-13 12:22:00,93.6,42.2,29.97,North,0,0.0,0.0,17,0.00,,SCT120,0.00,VWS V14.01,2013-08-13 16:22:00,
2013-08-13 12:27:00,92.8,41.7,29.97,North,0,0.0,0.0,17,0.00,,SCT120,0.00,VWS V14.01,2013-08-13 16:27:00,
2013-08-13 12:32:00,92.8,44.6,29.97,North,0,0.0,0.0,19,0.00,,SCT120,0.00,VWS V14.01,2013-08-13 16:32:00,
2013-08-13 12:37:00,92.3,42.7,29.97,North,0,0.0,0.0,18,0.00,,SCT120,0.00,VWS V14.01,2013-08-13 16:37:00,
2013-08-13 12:42:00,92.3,42.7,29.97,North,0,0.0,0.0,18,0.00,,SCT120,0.00,VWS V14.01,2013-08-13 16:42:00,
2013-08-13 12:47:00,93.2,43.4,29.97,North,0,0.0,0.0,18,0.00,,SCT120,0.00,VWS V14.01,2013-08-13 16:47:00,
2013-08-13 12:52:00,93.6,42.2,29.97,North,0,0.0,0.0,17,0.00,,SCT120,0.00,VWS V14.01,2013-08-13 16:52:00,
2013-08-13 12:57:00,93.9,42.5,29.97,North,0,0.0,0.0,17,0.00,,SCT120,0.00,VWS V14.01,2013-08-13 16:57:00,
2013-08-13 13:02:00,93.9,37.5,29.97,North,0,0.0,0.0,14,0.00,,SCT120,0.00,VWS V14.01,2013-08-13 17:02:00,
2013-08-13 13:07:00,93.9,42.5,29.97,North,0,0.0,0.0,17,0.00,,SCT120,0.00,VWS V14.01,2013-08-13 17:07:00,
2013-08-13 13:12:00,94.1,37.7,29.97,North,0,0.0,0.0,14,0.00,,SCT120,0.00,VWS V14.01,2013-08-13 17:12:00,
2013-08-13 13:17:00,93.6,42.2,29.97,North,0,0.0,0.0,17,0.00,,SCT120,0.00,VWS V14.01,2013-08-13 17:17:00,
2013-08-13 13:22:00,93.0,43.3,29.97,North,0,0.0,0.0,18,0.00,,SCT120,0.00,VWS V14.01,2013-08-13 17:22:00,
2013-08-13 13:27:00,92.8,41.7,29.97,North,0,0.0,0.0,17,0.00,,SCT120,0.00,VWS V14.01,2013-08-13 17:27:00,
2013-08-13 13:32:00,91.8,40.8,29.97,North,0,0.0,0.0,17,0.00,,SCT120,0.00,VWS V14.01,2013-08-13 17:32:00,
2013-08-13 13:37:00,91.8,40.8,29.97,North,0,0.0,0.0,17,0.00,,SCT120,0.00,VWS V14.01,2013-08-13 17:37:00,
2013-08-13 13:42:00,92.1,41.1,29.97,North,0,0.0,0.0,17,0.00,,SCT120,0.00,VWS V14.01,2013-08-13 17:42:00,
2013-08-13 13:47:00,91.9,40.9,29.97,North,0,0.0,0.0,17,0.00,,SCT120,0.00,VWS V14.01,2013-08-13 17:47:00,
2013-08-13 13:52:00,92.5,36.4,29.97,North,0,0.0,0.0,14,0.00,,SCT120,0.00,VWS V14.01,2013-08-13 17:52:00,
2013-08-13 13:57:00,92.8,36.7,29.94,North,0,0.0,0.0,14,0.00,,SCT120,0.00,VWS V14.01,2013-08-13 17:57:00,
2013-08-13 14:02:00,92.8,32.8,29.94,North,0,0.0,0.0,12,0.00,,SCT120,0.00,VWS V14.01,2013-08-13 18:02:00,
2013-08-13 14:07:00,92.7,36.5,29.94,North,0,0.0,0.0,14,0.00,,SCT120,0.00,VWS V14.01,2013-08-13 18:07:00,
2013-08-13 14:12:00,93.0,41.8,29.94,North,0,0.0,0.0,17,0.00,,SCT120,0.00,VWS V14.01,2013-08-13 18:12:00,
2013-08-13 14:17:00,92.8,36.7,29.94,North,0,0.0,0.0,14,0.00,,SCT120,0.00,VWS V14.01,2013-08-13 18:17:00,
2013-08-13 14:22:00,92.1,41.1,29.94,North,0,0.0,0.0,17,0.00,,SCT120,0.00,VWS V14.01,2013-08-13 18:22:00,
2013-08-13 14:27:00,92.7,36.5,29.94,North,0,0.0,0.0,14,0.00,,SCT120,0.00,VWS V14.01,2013-08-13 18:27:00,
2013-08-13 14:32:00,93.0,33.0,29.94,North,0,0.0,0.0,12,0.00,,SCT120,0.00,VWS V14.01,2013-08-13 18:32:00,
2013-08-13 14:37:00,92.7,32.7,29.94,North,0,0.0,0.0,12,0.00,,SCT120,0.00,VWS V14.01,2013-08-13 18:37:00,
2013-08-13 14:42:00,93.4,31.1,29.94,North,0,0.0,0.0,11,0.00,,SCT120,0.00,VWS V14.01,2013-08-13 18:42:00,
2013-08-13 14:47:00,94.3,31.8,29.94,North,0,0.0,0.0,11,0.00,,SCT120,0.00,VWS V14.01,2013-08-13 18:47:00,
2013-08-13 14:52:00,94.1,17.1,29.94,North,0,0.0,0.0,6,0.00,,SCT120,0.00,VWS V14.01,2013-08-13 18:52:00,
2013-08-13 14:57:00,93.7,26.5,29.94,North,0,0.0,0.0,9,0.00,,SCT120,0.00,VWS V14.01,2013-08-13 18:57:00,
2013-08-13 15:02:00,94.3,26.9,29.94,North,0,0.0,0.0,9,0.00,,SCT120,0.00,VWS V14.01,2013-08-13 19:02:00,
2013-08-13 15:07:00,95.0,17.8,29.94,North,0,0.0,0.0,6,0.00,,SCT120,0.00,VWS V14.01,2013-08-13 19:07:00,
2013-08-13 15:12:00,95.2,17.9,29.94,North,0,0.0,0.0,6,0.00,,SCT120,0.00,VWS V14.01,2013-08-13 19:12:00,
2013-08-13 15:17:00,95.0,17.8,29.94,North,0,0.0,0.0,6,0.00,,SCT120,0.00,VWS V14.01,2013-08-13 19:17:00,
2013-08-13 15:22:00,94.6,17.5,29.94,North,0,0.0,0.0,6,0.00,,SCT120,0.00,VWS V14.01,2013-08-13 19:22:00,
2013-08-13 15:27:00,95.4,18.0,29.94,North,0,0.0,0.0,6,0.00,,SCT120,0.00,VWS V14.01,2013-08-13 19:27:00,
2013-08-13 15:32:00,96.3,18.7,29.94,North,0,0.0,0.0,6,0.00,,SCT120,0.00,VWS V14.01,2013-08-13 19:32:00,
2013-08-13 15:37:00,96.1,18.5,29.94,North,0,0.0,0.0,6,0.00,,SCT120,0.00,VWS V14.01,2013-08-13 19:37:00,
2013-08-13 15:42:00,95.9,18.4,29.94,North,0,0.0,0.0,6,0.00,,SCT120,0.00,VWS V14.01,2013-08-13 19:42:00,
2013-08-13 15:47:00,95.9,18.4,29.94,North,0,0.0,0.0,6,0.00,,SCT120,0.00,VWS V14.01,2013-08-13 19:47:00,
2013-08-13 15:52:00,95.4,18.0,29.94,North,0,0.0,0.0,6,0.00,,SCT120,0.00,VWS V14.01,2013-08-13 19:52:00,
2013-08-13 15:57:00,95.2,17.9,29.94,North,0,0.0,0.0,6,0.00,,SCT120,0.00,VWS V14.01,2013-08-13 19:57:00,
2013-08-13 16:02:00,94.8,17.7,29.94,North,0,0.0,0.0,6,0.00,,SCT120,0.00,VWS V14.01,2013-08-13 20:02:00,
2013-08-13 16:07:00,94.6,17.5,29.94,North,0,0.0,0.0,6,0.00,,SCT120,0.00,VWS V14.01,2013-08-13 20:07:00,
2013-08-13 16:12:00,94.8,17.7,29.94,North,0,0.0,0.0,6,0.00,,SCT120,0.00,VWS V14.01,2013-08-13 20:12:00,
2013-08-13 16:17:00,94.8,17.7,29.94,North,0,0.0,0.0,6,0.00,,SCT120,0.00,VWS V14.01,2013-08-13 20:17:00,
2013-08-13 16:22:00,94.8,17.7,29.94,North,0,0.0,0.0,6,0.00,,SCT120,0.00,VWS V14.01,2013-08-13 20:22:00,
2013-08-13 16:27:00,94.6,17.5,29.94,North,0,0.0,0.0,6,0.00,,SCT120,0.00,VWS V14.01,2013-08-13 20:27:00,
2013-08-13 16:32:00,94.1,17.1,29.94,North,0,0.0,0.0,6,0.00,,SCT120,0.00,VWS V14.01,2013-08-13 20:32:00,
2013-08-13 16:37:00,93.7,16.9,29.94,North,0,0.0,0.0,6,0.00,,SCT120,0.00,VWS V14.01,2013-08-13 20:37:00,
2013-08-13 16:42:00,93.0,20.0,29.94,North,0,0.0,0.0,7,0.00,,SCT120,0.00,VWS V14.01,2013-08-13 20:42:00,
2013-08-13 16:47:00,93.4,16.6,29.94,North,0,0.0,0.0,6,0.00,,SCT120,0.00,VWS V14.01,2013-08-13 20:47:00,
2013-08-13 16:52:00,93.7,16.9,29.94,North,0,0.0,0.0,6,0.00,,SCT120,0.00,VWS V14.01,2013-08-13 20:52:00,
2013-08-13 16:57:00,93.9,17.0,29.94,North,0,0.0,0.0,6,0.00,,SCT120,0.00,VWS V14.01,2013-08-13 20:57:00,
2013-08-13 17:02:00,93.2,31.0,29.94,North,0,0.0,0.0,11,0.00,,SCT120,0.00,VWS V14.01,2013-08-13 21:02:00,
2013-08-13 17:07:00,92.8,32.8,29.94,North,0,0.0,0.0,12,0.00,,SCT120,0.00,VWS V14.01,2013-08-13 21:07:00,
2013-08-13 17:12:00,92.8,32.8,29.94,North,0,0.0,0.0,12,0.00,,SCT120,0.00,VWS V14.01,2013-08-13 21:12:00,
2013-08-13 17:17:00,92.8,32.8,29.94,North,0,0.0,0.0,12,0.00,,SCT120,0.00,VWS V14.01,2013-08-13 21:17:00,
2013-08-13 17:22:00,92.8,25.8,29.94,North,0,0.0,0.0,9,0.00,,SCT120,0.00,VWS V14.01,2013-08-13 21:22:00,
2013-08-13 17:27:00,92.8,25.8,29.94,North,0,0.0,0.0,9,0.00,,SCT120,0.00,VWS V14.01,2013-08-13 21:27:00,
2013-08-13 17:32:00,92.7,25.6,29.94,North,0,0.0,0.0,9,0.00,,SCT120,0.00,VWS V14.01,2013-08-13 21:32:00,
2013-08-13 17:37:00,92.7,25.6,29.94,North,0,0.0,0.0,9,0.00,,SCT120,0.00,VWS V14.01,2013-08-13 21:37:00,
2013-08-13 17:42:00,92.3,32.4,29.94,North,0,0.0,0.0,12,0.00,,SCT120,0.00,VWS V14.01,2013-08-13 21:42:00,
2013-08-13 17:47:00,91.9,36.0,29.94,North,0,0.0,0.0,14,0.00,,SCT120,0.00,VWS V14.01,2013-08-13 21:47:00,
2013-08-13 17:52:00,91.8,40.8,29.94,North,0,0.0,0.0,17,0.00,,SCT120,0.00,VWS V14.01,2013-08-13 21:52:00,
2013-08-13 17:57:00,91.6,40.7,29.94,North,0,0.0,0.0,17,0.00,,SCT120,0.00,VWS V14.01,2013-08-13 21:57:00,
2013-08-13 18:02:00,91.6,40.7,29.94,North,0,0.0,0.0,17,0.00,,SCT120,0.00,VWS V14.01,2013-08-13 22:02:00,
2013-08-13 18:07:00,91.4,42.0,29.94,North,0,0.0,0.0,18,0.00,,SCT120,0.00,VWS V14.01,2013-08-13 22:07:00,
2013-08-13 18:12:00,91.6,31.9,29.94,North,0,0.0,0.0,12,0.00,,SCT120,0.00,VWS V14.01,2013-08-13 22:12:00,
2013-08-13 18:17:00,92.1,32.3,29.94,North,0,0.0,0.0,12,0.00,,SCT120,0.00,VWS V14.01,2013-08-13 22:17:00,
2013-08-13 18:22:00,92.3,32.4,29.94,North,0,0.0,0.0,12,0.00,,SCT120,0.00,VWS V14.01,2013-08-13 22:22:00,
2013-08-13 18:28:00,91.9,32.1,29.94,North,0,0.0,0.0,12,0.00,,SCT120,0.00,VWS V14.01,2013-08-13 22:28:00,
2013-08-13 18:32:00,90.9,40.1,29.94,North,0,0.0,0.0,17,0.00,,SCT120,0.00,VWS V14.01,2013-08-13 22:32:00,
2013-08-13 18:38:00,90.1,41.0,29.94,North,0,0.0,0.0,18,0.00,,SCT120,0.00,VWS V14.01,2013-08-13 22:38:00,
2013-08-13 18:43:00,89.8,42.1,29.94,North,0,0.0,0.0,19,0.00,,SCT120,0.00,VWS V14.01,2013-08-13 22:43:00,
2013-08-13 18:48:00,89.2,43.0,29.94,North,0,0.0,0.0,20,0.00,,SCT120,0.00,VWS V14.01,2013-08-13 22:48:00,
2013-08-13 18:53:00,89.1,42.8,29.94,North,0,0.0,0.0,20,0.00,,SCT120,0.00,VWS V14.01,2013-08-13 22:53:00,
2013-08-13 18:58:00,88.7,43.8,29.97,North,0,0.0,0.0,21,0.00,,SCT120,0.00,VWS V14.01,2013-08-13 22:58:00,
2013-08-13 19:03:00,88.5,43.6,29.97,North,0,0.0,0.0,21,0.00,,SCT120,0.00,VWS V14.01,2013-08-13 23:03:00,
2013-08-13 19:08:00,88.3,44.7,29.97,North,0,0.0,0.0,22,0.00,,SCT120,0.00,VWS V14.01,2013-08-13 23:08:00,
2013-08-13 19:13:00,88.2,44.6,29.97,North,0,0.0,0.0,22,0.00,,SCT120,0.00,VWS V14.01,2013-08-13 23:13:00,
2013-08-13 19:18:00,88.0,44.4,29.97,North,0,0.0,0.0,22,0.00,,SCT120,0.00,VWS V14.01,2013-08-13 23:18:00,
2013-08-13 19:23:00,88.0,44.4,29.97,North,0,0.0,0.0,22,0.00,,SCT120,0.00,VWS V14.01,2013-08-13 23:23:00,
2013-08-13 19:28:00,88.0,44.4,29.97,North,0,0.0,0.0,22,0.00,,SCT120,0.00,VWS V14.01,2013-08-13 23:28:00,
2013-08-13 19:33:00,87.8,44.3,29.97,North,0,0.0,0.0,22,0.00,,SCT120,0.00,VWS V14.01,2013-08-13 23:33:00,
2013-08-13 19:38:00,87.8,45.4,29.97,North,0,0.0,0.0,23,0.00,,SCT120,0.00,VWS V14.01,2013-08-13 23:38:00,
2013-08-13 19:43:00,87.8,45.4,29.97,North,0,0.0,0.0,23,0.00,,SCT120,0.00,VWS V14.01,2013-08-13 23:43:00,
2013-08-13 19:48:00,87.4,46.2,29.97,North,0,0.0,0.0,24,0.00,,SCT120,0.00,VWS V14.01,2013-08-13 23:48:00,
2013-08-13 19:53:00,87.1,47.0,29.97,North,0,0.0,0.0,25,0.00,,SCT120,0.00,VWS V14.01,2013-08-13 23:53:00,
2013-08-13 19:58:00,86.9,47.9,29.97,North,0,0.0,0.0,26,0.00,,SCT120,0.00,VWS V14.01,2013-08-13 23:58:00,
2013-08-13 20:03:00,86.9,48.9,29.97,North,0,0.0,0.0,27,0.00,,SCT120,0.00,VWS V14.01,2013-08-14 00:03:00,
2013-08-13 20:08:00,86.9,48.9,29.97,North,0,0.0,0.0,27,0.00,,SCT120,0.00,VWS V14.01,2013-08-14 00:08:00,
2013-08-13 20:13:00,86.9,49.9,30.00,North,0,0.0,0.0,28,0.00,,SCT120,0.00,VWS V14.01,2013-08-14 00:13:00,
2013-08-13 20:18:00,86.7,49.8,30.00,North,0,0.0,0.0,28,0.00,,SCT120,0.00,VWS V14.01,2013-08-14 00:18:00,
2013-08-13 20:23:00,86.7,49.8,30.00,North,0,0.0,0.0,28,0.00,,SCT120,0.00,VWS V14.01,2013-08-14 00:23:00,
2013-08-13 20:28:00,86.5,49.6,30.00,North,0,0.0,0.0,28,0.00,,SCT120,0.00,VWS V14.01,2013-08-14 00:28:00,
2013-08-13 20:33:00,86.4,49.4,30.00,North,0,0.0,0.0,28,0.00,,SCT120,0.00,VWS V14.01,2013-08-14 00:33:00,
2013-08-13 20:38:00,86.2,50.2,30.00,North,0,0.0,0.0,29,0.00,,SCT120,0.00,VWS V14.01,2013-08-14 00:38:00,
2013-08-13 20:43:00,86.0,50.1,30.00,North,0,0.0,0.0,29,0.00,,SCT120,0.00,VWS V14.01,2013-08-14 00:43:00,
2013-08-13 20:48:00,86.0,50.1,30.00,North,0,0.0,0.0,29,0.00,,SCT120,0.00,VWS V14.01,2013-08-14 00:48:00,
2013-08-13 20:53:00,85.8,50.8,30.00,North,0,0.0,0.0,30,0.00,,SCT120,0.00,VWS V14.01,2013-08-14 00:53:00,
2013-08-13 20:58:00,85.5,50.5,30.00,North,0,0.0,0.0,30,0.00,,SCT120,0.00,VWS V14.01,2013-08-14 00:58:00,
2013-08-13 21:03:00,85.3,51.2,30.00,North,0,0.0,0.0,31,0.00,,SCT120,0.00,VWS V14.01,2013-08-14 01:03:00,
2013-08-13 21:08:00,85.1,51.1,30.00,North,0,0.0,0.0,31,0.00,,SCT120,0.00,VWS V14.01,2013-08-14 01:08:00,
2013-08-13 21:13:00,85.3,52.1,30.00,North,0,0.0,0.0,32,0.00,,SCT120,0.00,VWS V14.01,2013-08-14 01:13:00,
2013-08-13 21:18:00,85.3,52.1,30.00,North,0,0.0,0.0,32,0.00,,SCT120,0.00,VWS V14.01,2013-08-14 01:18:00,
2013-08-13 21:23:00,85.5,52.3,30.00,North,0,0.0,0.0,32,0.00,,SCT120,0.00,VWS V14.01,2013-08-14 01:23:00,
2013-08-13 21:28:00,85.3,52.1,30.00,North,0,0.0,0.0,32,0.00,,SCT120,0.00,VWS V14.01,2013-08-14 01:28:00,
2013-08-13 21:33:00,84.7,52.5,30.00,North,0,0.0,0.0,33,0.00,,SCT120,0.00,VWS V14.01,2013-08-14 01:33:00,
2013-08-13 21:38:00,84.6,53.1,30.00,North,0,0.0,0.0,34,0.00,,SCT120,0.00,VWS V14.01,2013-08-14 01:38:00,
2013-08-13 21:43:00,84.4,53.8,30.00,North,0,0.0,0.0,35,0.00,,SCT120,0.00,VWS V14.01,2013-08-14 01:43:00,
2013-08-13 21:48:00,84.2,53.6,30.00,North,0,0.0,0.0,35,0.00,,SCT120,0.00,VWS V14.01,2013-08-14 01:48:00,
2013-08-13 21:53:00,84.0,55.0,30.00,North,0,0.0,0.0,37,0.00,,SCT120,0.00,VWS V14.01,2013-08-14 01:53:00,
2013-08-13 21:58:00,83.8,55.5,30.00,North,0,0.0,0.0,38,0.00,,SCT120,0.00,VWS V14.01,2013-08-14 01:58:00,
2013-08-13 22:03:00,84.0,56.4,30.00,North,0,0.0,0.0,39,0.00,,SCT120,0.00,VWS V14.01,2013-08-14 02:03:00,
2013-08-13 22:08:00,84.2,56.6,30.00,North,0,0.0,0.0,39,0.00,,SCT120,0.00,VWS V14.01,2013-08-14 02:08:00,
2013-08-13 22:13:00,84.2,56.6,30.00,North,0,0.0,0.0,39,0.00,,SCT120,0.00,VWS V14.01,2013-08-14 02:13:00,
2013-08-13 22:18:00,84.2,56.6,30.00,North,0,0.0,0.0,39,0.00,,SCT120,0.00,VWS V14.01,2013-08-14 02:18:00,
2013-08-13 22:23:00,84.2,56.6,30.00,North,0,0.0,0.0,39,0.00,,SCT120,0.00,VWS V14.01,2013-08-14 02:23:00,
2013-08-13 22:28:00,84.0,56.4,30.03,North,0,0.0,0.0,39,0.00,,SCT120,0.00,VWS V14.01,2013-08-14 02:28:00,
2013-08-13 22:33:00,84.0,57.1,30.03,North,0,0.0,0.0,40,0.00,,SCT120,0.00,VWS V14.01,2013-08-14 02:33:00,
2013-08-13 22:38:00,83.8,57.0,30.03,North,0,0.0,0.0,40,0.00,,SCT120,0.00,VWS V14.01,2013-08-14 02:38:00,
2013-08-13 22:43:00,83.8,57.7,30.00,North,0,0.0,0.0,41,0.00,,SCT120,0.00,VWS V14.01,2013-08-14 02:43:00,
2013-08-13 22:48:00,83.8,57.7,30.00,North,0,0.0,0.0,41,0.00,,SCT120,0.00,VWS V14.01,2013-08-14 02:48:00,
2013-08-13 22:53:00,84.0,57.8,30.00,North,0,0.0,0.0,41,0.00,,SCT120,0.00,VWS V14.01,2013-08-14 02:53:00,
2013-08-13 22:57:00,83.8,57.7,30.00,North,0,0.0,0.0,41,0.00,,SCT120,0.00,VWS V14.01,2013-08-14 02:57:00,
2013-08-13 23:02:00,83.7,58.2,30.00,North,0,0.0,0.0,42,0.00,,SCT120,0.00,VWS V14.01,2013-08-14 03:02:00,
2013-08-13 23:07:00,83.5,58.0,30.00,North,0,0.0,0.0,42,0.00,,SCT120,0.00,VWS V14.01,2013-08-14 03:07:00,
2013-08-13 23:12:00,83.5,58.7,30.03,North,0,0.0,0.0,43,0.00,,SCT120,0.00,VWS V14.01,2013-08-14 03:12:00,
2013-08-13 23:17:00,83.5,58.7,30.03,North,0,0.0,0.0,43,0.00,,SCT120,0.00,VWS V14.01,2013-08-14 03:17:00,
2013-08-13 23:22:00,83.5,58.7,30.03,North,0,0.0,0.0,43,0.00,,SCT120,0.00,VWS V14.01,2013-08-14 03:22:00,
2013-08-13 23:27:00,83.5,59.3,30.00,North,0,0.0,0.0,44,0.00,,SCT120,0.00,VWS V14.01,2013-08-14 03:27:00,
2013-08-13 23:32:00,83.7,59.5,30.00,North,0,0.0,0.0,44,0.00,,SCT120,0.00,VWS V14.01,2013-08-14 03:32:00,
2013-08-13 23:37:00,83.5,59.3,30.00,North,0,0.0,0.0,44,0.00,,SCT120,0.00,VWS V14.01,2013-08-14 03:37:00,
2013-08-13 23:42:00,83.1,59.0,30.00,North,0,0.0,0.0,44,0.00,,SCT120,0.00,VWS V14.01,2013-08-14 03:42:00,
2013-08-13 23:47:00,82.9,59.4,30.00,North,0,0.0,0.0,45,0.00,,SCT120,0.00,VWS V14.01,2013-08-14 03:47:00,
2013-08-13 23:52:00,82.8,59.9,30.00,North,0,0.0,0.0,46,0.00,,SCT120,0.00,VWS V14.01,2013-08-14 03:52:00,
2013-08-13 23:57:00,82.8,60.5,30.00,North,0,0.0,0.0,47,0.00,,SCT120,0.00,VWS V14.01,2013-08-14 03:57:00,